User: anonymous   Login
Location: Unspecified
(0.0000°N, 0.0000°E)
Time: 19:14:58
(UTC+02:00)
Language:

ASC 2 Rocket - Orbit

View from above orbital plane
View from above orbital plane
View from above satellite
View from above satellite

Ground track
Ground track

The orbit data is extracted from the following two-line orbital elements,

1 21228U 91028B   17174.90061211 +.00000267 +00000-0 +57262-4 0  9996
2 21228 023.9925 035.7424 1143099 089.3372 018.1046 12.53317559198628
Epoch (UTC): 23 June 2017 21:36:52
Eccentricity: 0.1143099
inclination: 23.9925°
perigee height: 556 km
apogee height: 2345 km
right ascension of ascending node: 35.7424°
argument of perigee: 89.3372°
revolutions per day: 12.53317559
mean anomaly at epoch: 18.1046°
orbit number at epoch: 19862

The dashed part of the orbit path shows where the satellite is in the earth's shadow,  

DLR